Weather History for Waukesha, WI

Change the Weather History Date:

Monday, January 9, 2012

  Actual Average Record
Temperature  
Mean Temperature 32 °F -  
Max Temperature 42 °F 24 °F 53 °F (2002)
Min Temperature 23 °F 7 °F -19 °F (1982)
Degree Days  
Heating Degree Days 32    
Moisture  
Dew Point 25 °F    
Average Humidity 78    
Maximum Humidity 93    
Minimum Humidity 53    
Precipitation  
Precipitation 0.00 in - - ()
Sea Level Pressure  
Sea Level Pressure 30.04 in    
Wind  
Wind Speed 8 mph (SW)    
Max Wind Speed 22 mph    
Max Gust Speed 34 mph    
Visibility 10 miles    
Events      
Averages and records for this station are not official NWS values.
T = Trace of Precipitation, MM = Missing Value Source: NWS Daily Summary

Daily Weather History Graph

Daily Weather History Graph

Search for Another Location

Airport:

Trip Planner

Search our weather history database for the weather conditions in past years. The results will help you decide how hot, cold, wet, or windy it might be!

Date:

Astronomy

Jan. 09, 2012 Rise Set
Actual Time 7:23 AM CST 4:36 PM CST
Civil Twilight 6:52 AM CST 5:08 PM CST
Nautical Twilight 6:16 AM CST 5:43 PM CST
Astronomical Twilight 5:42 AM CST 6:17 PM CST
Moon 5:24 PM CST (1/9) 7:22 AM CST (1/9)
Length of Visible Light 10h 16m
Length of Day
9h 12m
Full, 100% of the Moon is Illuminated
Jan 9
Full
Jan 16
Last Quarter
Jan 23
New
Jan 30
First Quarter
Feb 7
Full

Hourly Weather History & Observations

Time (CST) Temp. Windchill Dew Point Humidity Pressure Visibility Wind Dir Wind Speed Gust Speed Precip Events Conditions
12:15 AM 26.6 °F 20.0 °F 23.0 °F 86% 30.21 in 10.0 mi SW 5.8 mph - N/A   Clear
12:35 AM 26.6 °F 21.2 °F 23.0 °F 86% 30.20 in 10.0 mi SSW 4.6 mph - N/A   Clear
12:55 AM 26.6 °F 22.6 °F 23.0 °F 86% 30.19 in 10.0 mi SSW 3.5 mph - N/A   Clear
1:15 AM 24.8 °F 19.1 °F 23.0 °F 93% 30.19 in 10.0 mi SSW 4.6 mph - N/A   Clear
1:35 AM 24.8 °F - 23.0 °F 93% 30.18 in 10.0 mi Calm Calm - N/A   Clear
1:55 AM 23.0 °F 17.0 °F 21.2 °F 93% 30.18 in 10.0 mi SSW 4.6 mph - N/A   Clear
2:15 AM 26.6 °F 22.6 °F 23.0 °F 86% 30.18 in 10.0 mi SW 3.5 mph - N/A   Clear
2:35 AM 26.6 °F 21.2 °F 23.0 °F 86% 30.17 in 10.0 mi SSW 4.6 mph - N/A   Clear
2:55 AM 26.6 °F 21.2 °F 23.0 °F 86% 30.16 in 10.0 mi SSW 4.6 mph - N/A   Clear
3:15 AM 26.6 °F 20.0 °F 23.0 °F 86% 30.15 in 10.0 mi SSW 5.8 mph - N/A   Clear
3:35 AM 26.6 °F 21.2 °F 23.0 °F 86% 30.15 in 10.0 mi SSW 4.6 mph - N/A   Clear
3:55 AM 26.6 °F 21.2 °F 23.0 °F 86% 30.13 in 10.0 mi SSW 4.6 mph - N/A   Clear
4:15 AM 26.6 °F 20.0 °F 23.0 °F 86% 30.12 in 10.0 mi South 5.8 mph - N/A   Clear
4:35 AM 26.6 °F 20.0 °F 23.0 °F 86% 30.13 in 10.0 mi SSW 5.8 mph - N/A   Clear
5:45 AM 26.6 °F 19.1 °F 23.0 °F 86% 30.11 in 10.0 mi SSW 6.9 mph - N/A   Clear
6:45 AM 26.6 °F 17.5 °F 23.0 °F 86% 30.10 in 10.0 mi SSW 9.2 mph - N/A   Clear
7:45 AM 26.6 °F 17.5 °F 24.8 °F 93% 30.07 in 10.0 mi SSW 9.2 mph - N/A   Clear
8:45 AM 30.2 °F 20.8 °F 24.8 °F 80% 30.05 in 10.0 mi SSW 11.5 mph 20.7 mph N/A   Scattered Clouds
10:45 AM 35.6 °F 25.2 °F 24.8 °F 65% 29.98 in 10.0 mi SW 18.4 mph 29.9 mph N/A   Clear
12:45 PM 39.2 °F 29.0 °F 26.6 °F 61% 29.89 in 10.0 mi SW 21.9 mph 33.4 mph N/A   Scattered Clouds
2:45 PM 42.8 °F 35.8 °F 26.6 °F 53% 29.86 in 10.0 mi WSW 13.8 mph 27.6 mph N/A   Clear
3:45 PM 42.8 °F 35.4 °F 26.6 °F 53% 29.88 in 10.0 mi WSW 15.0 mph 26.5 mph N/A   Clear
4:45 PM 39.2 °F 30.2 °F 26.6 °F 61% 29.90 in 10.0 mi WSW 17.3 mph 34.5 mph N/A   Clear
6:45 PM 37.4 °F 29.8 °F 26.6 °F 65% 29.93 in 10.0 mi SW 11.5 mph - N/A   Clear
7:45 PM 35.6 °F 27.5 °F 26.6 °F 70% 29.95 in 10.0 mi West 11.5 mph - N/A   Clear
8:15 PM 35.6 °F 28.6 °F 26.6 °F 70% 29.95 in 10.0 mi WSW 9.2 mph - N/A   Clear
8:35 PM 35.6 °F 28.0 °F 26.6 °F 70% 29.95 in 10.0 mi WSW 10.4 mph - N/A   Clear
8:45 PM 35.6 °F 27.5 °F 26.6 °F 70% 29.95 in 10.0 mi West 11.5 mph - N/A   Clear
8:55 PM 35.6 °F 28.0 °F 26.6 °F 70% 29.96 in 10.0 mi WSW 10.4 mph - N/A   Clear
9:15 PM 35.6 °F 28.0 °F 28.4 °F 75% 29.95 in 10.0 mi West 10.4 mph - N/A   Clear
9:35 PM 35.6 °F 26.6 °F 28.4 °F 75% 29.95 in 10.0 mi West 13.8 mph - N/A   Clear
9:55 PM 35.6 °F 27.1 °F 28.4 °F 75% 29.96 in 10.0 mi West 12.7 mph - N/A   Clear
10:15 PM 35.6 °F 26.6 °F 28.4 °F 75% 29.96 in 10.0 mi West 13.8 mph - N/A   Clear
10:35 PM 35.6 °F 27.1 °F 28.4 °F 75% 29.96 in 10.0 mi West 12.7 mph - N/A   Clear
10:55 PM 35.6 °F 26.6 °F 28.4 °F 75% 29.96 in 10.0 mi West 13.8 mph - N/A   Clear
11:15 PM 33.8 °F 24.8 °F 28.4 °F 81% 29.96 in 10.0 mi West 12.7 mph - N/A   Clear
11:55 PM 35.6 °F 27.1 °F 28.4 °F 75% 29.97 in 10.0 mi West 12.7 mph 17.3 mph N/A   Clear